sat.trackr.live / text

‹ back to catalog

ONEWEB-0589

NORAD 54655 · 2022-166P

PAYLOAD ACTIVE UNKNOWN

§ Identity

Operator
Country
UK
Launch date
2022-12-08
Launch site
AFETR
Launch vehicle
Mass (kg)
RCS (m²)

Purposes: comms

External: N2YO · Heavens-Above · Gunter

§ Orbital elements

Epoch: 2026-05-25T00:48:33.179904Z

Period
108.94 min
Inclination
87.9250°
Eccentricity
0.0002846
Mean motion
13.21827413 rev/d
Perigee alt
1,175.6 km
Apogee alt
1,179.9 km
Semi-major
7,555.9 km
B*
1.0990e-4
RAAN
248.5886°
Arg perigee
96.5604°
Mean anomaly
263.5854°
Rev number
16,848

§ Raw data

ONEWEB-05891 54655U 22166P   26145.03371736  .00000058  00000+0  10990-3 0  99942 54655  87.9250 248.5886 0002846  96.5604 263.5854 13.21827413168481

JSON: /api/v1/satellites/54655 · /tle

For live sub-satellite position, see the globe view (requires WebGL).

§ Visibility from observer

Set your observer location to see the next 7 days of passes ≥ 10°. The values pass through the URL so the page stays shareable.

No JS? Fill the form by hand. The geolocation button needs JavaScript.